CW5988 Weather Reports


Display with metric or nautical units.
time (UTC)temp
F
wind
direction
speed
MPH
gust
MPH
rain 1hr
in
rain 24hr
in
rain mn
in
humidity
%
barometer
mb
20260903052944 62 254 5.0 15.0 0.00 0.00 0.00 83 1016.6
20260903052432 62 264 5.0 15.0 0.00 0.00 0.00 83 1016.6
20260903051918 62 263 8.0 12.0 0.00 0.00 0.00 83 1016.6
20260903051423 62 270 5.0 12.0 0.00 0.00 0.00 83 1016.7
20260903050930 62 244 5.0 13.0 0.00 0.00 0.00 83 1016.7
20260903050418 62 263 6.0 13.0 0.00 0.00 0.00 83 1016.7
20260903045923 62 217 6.0 12.0 0.00 0.00 0.00 83 1016.8
20260903045428 62 194 3.0 9.0 0.00 0.00 0.00 83 1016.8
20260903044935 62 134 3.0 8.0 0.00 0.00 0.00 83 1016.7
20260903044422 62 232 3.0 8.0 0.00 0.00 0.00 83 1016.6
20260903043929 62 252 3.0 12.0 0.00 0.00 0.00 83 1016.7
20260903043435 62 205 6.0 15.0 0.00 0.00 0.00 83 1016.6
20260903042952 62 216 7.0 15.0 0.00 0.00 0.00 83 1016.5
20260903042420 62 252 6.0 16.0 0.00 0.00 0.00 83 1016.4
20260903041923 62 259 6.0 18.0 0.00 0.00 0.00 83 1016.4
20260903041457 62 237 9.0 19.0 0.00 0.00 0.00 83 1016.3
20260903040923 62 268 10.0 19.0 0.00 0.00 0.00 83 1016.4
20260903040429 62 299 9.0 19.0 0.00 0.00 0.00 83 1016.3
20260903035934 62 287 11.0 21.0 0.00 0.00 0.00 83 1016.3
20260903035440 63 268 12.0 24.0 0.00 0.00 0.00 83 1016.2
20260903034925 63 289 13.0 24.0 0.00 0.00 0.00 83 1016.1
20260903034431 63 284 15.0 23.0 0.00 0.00 0.00 83 1016.1
20260903033918 63 264 16.0 26.0 0.00 0.00 0.00 83 1016.1
20260903033428 63 222 14.0 26.0 0.00 0.00 0.00 83 1016.0
20260903032932 63 249 13.0 22.0 0.00 0.00 0.00 83 1015.9
20260903032420 63 359 15.0 26.0 0.00 0.00 0.00 83 1015.8
20260903031927 63 270 15.0 26.0 0.00 0.00 0.00 83 1015.7
20260903031432 63 261 15.0 21.0 0.00 0.00 0.00 83 1015.7
20260903030919 63 270 13.0 22.0 0.00 0.00 0.00 83 1015.8
20260903030423 63 237 14.0 22.0 0.00 0.00 0.00 83 1015.7
20260903025929 63 287 13.0 23.0 0.00 0.00 0.00 83 1015.6
20260903025434 63 273 13.0 23.0 0.00 0.00 0.00 83 1015.6
20260903024918 63 242 11.0 20.0 0.00 0.00 0.00 83 1015.6
20260903024425 63 265 10.0 21.0 0.00 0.00 0.00 82 1015.7
20260903023930 63 282 12.0 21.0 0.00 0.00 0.00 82 1015.7
20260903023437 63 270 10.0 19.0 0.00 0.00 0.00 81 1015.8
20260903022939 63 257 11.0 22.0 0.00 0.00 0.00 81 1015.8
20260903022423 63 280 11.0 18.0 0.00 0.00 0.00 81 1016.0
20260903021929 63 276 10.0 22.0 0.00 0.00 0.00 80 1015.9
20260903021435 64 271 12.0 21.0 0.00 0.00 0.00 80 1016.0
20260903020920 64 277 13.0 21.0 0.00 0.00 0.00 80 1016.0
20260903020425 64 282 9.0 23.0 0.00 0.00 0.00 80 1016.1
20260903015929 64 254 10.0 23.0 0.00 0.00 0.00 79 1016.1
20260903015433 64 292 9.0 16.0 0.00 0.00 0.00 79 1016.2
20260903014921 64 249 10.0 18.0 0.00 0.00 0.00 79 1016.2
20260903014429 64 285 10.0 19.0 0.00 0.00 0.00 78 1016.2
20260903013917 64 257 12.0 19.0 0.00 0.00 0.00 77 1016.2
20260903013423 65 254 9.0 25.0 0.00 0.00 0.00 77 1016.4
20260903012931 65 222 10.0 25.0 0.00 0.00 0.00 76 1016.2
20260903012419 65 291 13.0 22.0 0.00 0.00 0.00 76 1016.3
20260903011927 65 228 12.0 23.0 0.00 0.00 0.00 75 1016.2
20260903011430 66 256 11.0 22.0 0.00 0.00 0.00 75 1016.3
20260903010936 66 233 13.0 19.0 0.00 0.00 0.00 75 1016.3
20260903010445 66 276 11.0 21.0 0.00 0.00 0.00 75 1016.3
20260903005939 66 282 12.0 21.0 0.00 0.00 0.00 74 1016.3
20260903005451 66 257 13.0 18.0 0.00 0.00 0.00 74 1016.3
20260903004936 66 268 9.0 21.0 0.00 0.00 0.00 74 1016.3
20260903004421 66 280 15.0 21.0 0.00 0.00 0.00 74 1016.3
20260903003927 66 281 12.0 24.0 0.00 0.00 0.00 73 1016.3
20260903003433 66 316 12.0 24.0 0.00 0.00 0.00 73 1016.4
20260903002918 66 278 13.0 23.0 0.00 0.00 0.00 74 1016.4
20260903002426 66 288 15.0 22.0 0.00 0.00 0.00 73 1016.5
20260903001929 66 249 13.0 23.0 0.00 0.00 0.00 73 1016.6
20260903001435 66 264 9.0 23.0 0.00 0.00 0.00 73 1016.6
20260903000922 66 263 13.0 22.0 0.00 0.00 0.00 73 1016.5
20260903000432 66 273 15.0 22.0 0.00 0.00 0.00 73 1016.6
20260902235936 67 280 11.0 21.0 0.00 0.00 0.00 73 1016.7
20260902235453 67 310 11.0 22.0 0.00 0.00 0.00 73 1016.7
20260902234939 67 225 12.0 22.0 0.00 0.00 0.00 72 1016.8
20260902234442 67 270 8.0 19.0 0.00 0.00 0.00 72 1016.8
20260902233926 67 275 10.0 18.0 0.00 0.00 0.00 72 1016.8
20260902233434 68 268 10.0 19.0 0.00 0.00 0.00 71 1016.7
20260902232948 67 258 10.0 19.0 0.00 0.00 0.00 71 1016.7
20260902232434 67 248 11.0 18.0 0.00 0.00 0.00 71 1016.7
20260902231941 67 310 10.0 19.0 0.00 0.00 0.00 72 1016.8
20260902231445 67 239 10.0 23.0 0.00 0.00 0.00 72 1016.9
20260902230932 68 268 13.0 23.0 0.00 0.00 0.00 71 1016.9
20260902230436 68 275 9.0 22.0 0.00 0.00 0.00 72 1016.9
20260902225928 67 280 12.0 22.0 0.00 0.00 0.00 72 1017.0
20260902225434 68 280 8.0 19.0 0.00 0.00 0.00 72 1017.1
20260902224938 68 289 8.0 19.0 0.00 0.00 0.00 72 1017.1
20260902224451 68 258 9.0 17.0 0.00 0.00 0.00 71 1017.2
20260902223939 68 273 11.0 17.0 0.00 0.00 0.00 71 1017.3
20260902223423 69 259 7.0 16.0 0.00 0.00 0.00 71 1017.2
20260902222955 69 258 7.0 16.0 0.00 0.00 0.00 71 1017.2
20260902222422 69 233 5.0 16.0 0.00 0.00 0.00 71 1017.3
20260902221927 69 256 8.0 16.0 0.00 0.00 0.00 71 1017.3
20260902221417 69 282 6.0 14.0 0.00 0.00 0.00 72 1017.2
20260902220918 68 249 6.0 16.0 0.00 0.00 0.00 72 1017.3
20260902220453 68 303 10.0 18.0 0.00 0.00 0.00 72 1017.3
20260902215925 68 256 7.0 20.0 0.00 0.00 0.00 72 1017.3
20260902215428 68 270 10.0 20.0 0.00 0.00 0.00 72 1017.3
20260902214934 68 301 11.0 18.0 0.00 0.00 0.00 71 1017.4
20260902214423 68 226 11.0 18.0 0.00 0.00 0.00 72 1017.3
20260902213958 69 302 7.0 16.0 0.00 0.00 0.00 71 1017.4
20260902213418 68 254 8.0 21.0 0.00 0.00 0.00 72 1017.5
20260902212922 68 251 10.0 21.0 0.00 0.00 0.00 72 1017.5
20260902212427 68 232 9.0 18.0 0.00 0.00 0.00 73 1017.5
20260902211934 68 271 12.0 18.0 0.00 0.00 0.00 71 1017.4
20260902211439 68 296 5.0 17.0 0.00 0.00 0.00 73 1017.5
20260902210928 68 289 7.0 20.0 0.00 0.00 0.00 73 1017.5
20260902210436 68 268 10.0 20.0 0.00 0.00 0.00 73 1017.6
20260902205944 68 256 9.0 16.0 0.00 0.00 0.00 73 1017.5
20260902205432 68 284 7.0 16.0 0.00 0.00 0.00 73 1017.5
20260902204920 68 220 7.0 13.0 0.00 0.00 0.00 73 1017.6
20260902204445 68 242 5.0 14.0 0.00 0.00 0.00 74 1017.5
20260902203928 68 261 5.0 14.0 0.00 0.00 0.00 74 1017.6
20260902203435 67 245 7.0 15.0 0.00 0.00 0.00 75 1017.6
20260902202922 67 327 8.0 16.0 0.00 0.00 0.00 75 1017.6
20260902202424 67 212 5.0 16.0 0.00 0.00 0.00 75 1017.7
20260902201928 68 239 8.0 15.0 0.00 0.00 0.00 75 1017.8
20260902201436 68 209 7.0 15.0 0.00 0.00 0.00 75 1017.9
20260902200923 68 230 7.0 16.0 0.00 0.00 0.00 75 1017.9
20260902200428 67 229 9.0 16.0 0.00 0.00 0.00 75 1017.9
20260902195932 67 289 7.0 12.0 0.00 0.00 0.00 76 1018.0
20260902195421 67 286 5.0 11.0 0.00 0.00 0.00 76 1018.1
20260902194943 67 264 6.0 12.0 0.00 0.00 0.00 76 1018.2
20260902194428 67 340 5.0 16.0 0.00 0.00 0.00 76 1018.2
20260902193935 67 251 5.0 11.0 0.00 0.00 0.00 77 1018.3
20260902193450 67 195 6.0 14.0 0.00 0.00 0.00 78 1018.2
20260902192934 66 216 7.0 15.0 0.00 0.00 0.00 79 1018.2
20260902192421 66 221 8.0 14.0 0.00 0.00 0.00 79 1018.3
20260902191928 66 209 6.0 13.0 0.00 0.00 0.00 81 1018.3
20260902191432 65 230 6.0 17.0 0.00 0.00 0.00 81 1018.3
20260902190950 65 302 8.0 17.0 0.00 0.00 0.00 82 1018.5
20260902190435 65 242 5.0 15.0 0.00 0.00 0.00 82 1018.4
20260902185933 64 313 7.0 16.0 0.00 0.00 0.00 81 1018.3
20260902185419 65 177 9.0 16.0 0.00 0.00 0.00 80 1018.4
20260902184926 66 217 10.0 16.0 0.00 0.00 0.00 78 1018.2
20260902184431 67 277 8.0 18.0 0.00 0.00 0.00 77 1018.3
20260902183934 67 300 6.0 18.0 0.00 0.00 0.00 77 1018.1
20260902183418 67 282 6.0 15.0 0.00 0.00 0.00 77 1018.2
20260902182920 66 217 8.0 15.0 0.00 0.00 0.00 77 1018.2
20260902182425 66 214 4.0 12.0 0.00 0.00 0.00 78 1018.3
20260902181932 66 283 6.0 12.0 0.00 0.00 0.00 78 1018.2
20260902181418 66 237 6.0 13.0 0.00 0.00 0.00 77 1018.2
20260902180923 66 333 8.0 14.0 0.00 0.00 0.00 77 1018.2
20260902180426 66 275 6.0 15.0 0.00 0.00 0.00 77 1018.1
20260902175930 66 273 9.0 15.0 0.00 0.00 0.00 77 1018.0
20260902175437 66 197 8.0 15.0 0.00 0.00 0.00 77 1018.1
20260902174949 66 247 8.0 17.0 0.00 0.00 0.00 77 1017.9
20260902174435 66 237 8.0 17.0 0.00 0.00 0.00 77 1017.9
20260902173922 66 268 6.0 12.0 0.00 0.00 0.00 77 1017.9
20260902173429 67 234 7.0 11.0 0.00 0.00 0.00 77 1017.7
20260902172926 67 234 5.0 13.0 0.00 0.00 0.00 78 1017.6
20260902172434 66 212 5.0 13.0 0.00 0.00 0.00 78 1017.5
20260902171950 66 249 6.0 13.0 0.00 0.00 0.00 78 1017.5
20260902171435 66 221 6.0 13.0 0.00 0.00 0.00 79 1017.4
20260902170921 66 235 4.0 11.0 0.00 0.00 0.00 79 1017.5
20260902170428 66 242 4.0 15.0 0.00 0.00 0.00 78 1017.5
20260902165933 66 226 5.0 15.0 0.00 0.00 0.00 78 1017.4
20260902165420 66 211 3.0 13.0 0.00 0.00 0.00 78 1017.4
20260902164920 66 238 5.0 12.0 0.00 0.00 0.00 78 1017.4
20260902164426 66 247 4.0 10.0 0.00 0.00 0.00 78 1017.3
20260902163934 66 213 6.0 10.0 0.00 0.00 0.00 77 1017.3
20260902163419 66 227 5.0 10.0 0.00 0.00 0.00 77 1017.2
20260902162927 66 234 2.0 9.0 0.00 0.00 0.00 77 1017.3
20260902162432 66 208 3.0 8.0 0.00 0.00 0.00 77 1017.3
20260902161934 66 268 2.0 5.0 0.00 0.00 0.00 77 1017.3
20260902161436 66 258 2.0 6.0 0.00 0.00 0.00 77 1017.3
20260902160920 66 151 3.0 6.0 0.00 0.00 0.00 77 1017.3
20260902160423 65 107 2.0 6.0 0.00 0.00 0.00 77 1017.2
20260902155925 65 134 2.0 6.0 0.00 0.00 0.00 76 1017.2
20260902155432 65 196 2.0 6.0 0.00 0.00 0.00 76 1017.2
20260902154936 65 134 3.0 6.0 0.00 0.00 0.00 76 1017.2
20260902154422 65 160 3.0 6.0 0.00 0.00 0.00 76 1017.3
20260902153926 65 268 1.0 5.0 0.00 0.00 0.00 76 1017.2
20260902153428 65 158 1.0 5.0 0.00 0.00 0.00 77 1017.3
20260902152931 64 88 1.0 4.0 0.00 0.00 0.00 77 1017.3
20260902152436 64 99 1.0 5.0 0.00 0.00 0.00 77 1017.3
20260902151921 64 55 3.0 5.0 0.00 0.00 0.00 77 1017.3
20260902151425 64 101 1.0 4.0 0.00 0.00 0.00 78 1017.2
20260902150948 63 83 2.0 4.0 0.00 0.00 0.00 78 1017.3
20260902150428 63 168 2.0 4.0 0.00 0.00 0.00 78 1017.2
20260902145929 63 177 1.0 3.0 0.00 0.00 0.00 78 1017.2
20260902145434 63 116 1.0 3.0 0.00 0.00 0.00 79 1016.9
20260902144918 63 34 1.0 2.0 0.00 0.00 0.00 79 1016.8
20260902144446 63 209 1.0 2.0 0.00 0.00 0.00 79 1016.7
20260902143930 62 313 0.0 2.0 0.00 0.00 0.00 79 1016.7
20260902143430 62 45 0.0 2.0 0.00 0.00 0.00 78 1016.6
20260902142934 62 88 0.0 2.0 0.00 0.00 0.00 78 1016.5
20260902142446 62 104 1.0 2.0 0.00 0.00 0.00 78 1016.6
20260902141929 62 205 1.0 2.0 0.00 0.00 0.00 78 1016.6
20260902141435 62 177 1.0 2.0 0.00 0.00 0.00 78 1016.6
20260902140921 62 177 1.0 2.0 0.00 0.00 0.00 78 1016.6
20260902140424 62 177 1.0 2.0 0.00 0.00 0.00 78 1016.6
20260902135921 62 45 0.0 2.0 0.00 0.00 0.00 78 1016.6
20260902135425 63 134 0.0 2.0 0.00 0.00 0.00 77 1016.6
20260902134930 63 134 1.0 3.0 0.00 0.00 0.00 77 1016.6
20260902134434 63 222 1.0 3.0 0.00 0.00 0.00 77 1016.6
20260902133940 63 134 1.0 3.0 0.00 0.00 0.00 77 1016.5
20260902133421 63 151 1.0 3.0 0.00 0.00 0.00 77 1016.6
20260902132925 62 123 1.0 2.0 0.00 0.00 0.00 77 1016.6
20260902132429 62 240 1.0 2.0 0.00 0.00 0.00 77 1016.5
20260902131934 62 222 1.0 3.0 0.00 0.00 0.00 77 1016.4
20260902131449 62 27 1.0 3.0 0.00 0.00 0.00 77 1016.4
20260902130933 62 160 1.0 3.0 0.00 0.00 0.00 77 1016.4
20260902130436 62 147 2.0 3.0 0.00 0.00 0.00 77 1016.3
20260902125921 62 107 0.0 2.0 0.00 0.00 0.00 77 1016.3
20260902125427 62 268 1.0 2.0 0.00 0.00 0.00 77 1016.3
20260902124927 62 88 1.0 2.0 0.00 0.00 0.00 77 1016.4
20260902124433 62 330 1.0 3.0 0.00 0.00 0.00 77 1016.3
20260902123937 62 158 2.0 4.0 0.00 0.00 0.00 78 1016.2
20260902123441 62 1 1.0 4.0 0.00 0.00 0.00 78 1016.3
20260902122924 63 160 2.0 4.0 0.00 0.00 0.00 78 1016.2
20260902122430 63 196 1.0 5.0 0.00 0.00 0.00 78 1016.2
20260902121936 63 88 1.0 5.0 0.00 0.00 0.00 78 1016.2
20260902121434 63 160 1.0 6.0 0.00 0.00 0.00 78 1016.2
20260902120937 62 134 4.0 7.0 0.00 0.00 0.00 79 1016.3
20260902120439 62 177 2.0 7.0 0.00 0.00 0.00 79 1016.3
20260902115922 62 177 1.0 4.0 0.00 0.00 0.00 79 1016.3
20260902115443 62 120 1.0 3.0 0.00 0.00 0.00 80 1016.4
20260902114929 62 88 1.0 4.0 0.00 0.00 0.00 80 1016.2
20260902114431 62 134 2.0 4.0 0.00 0.00 0.00 80 1016.3
20260902113918 62 205 1.0 2.0 0.00 0.00 0.00 80 1016.2
20260902113443 62 128 1.0 4.0 0.00 0.00 0.00 80 1016.2
20260902112928 62 120 2.0 4.0 0.00 0.00 0.00 80 1016.1
20260902112432 62 177 1.0 3.0 0.00 0.00 0.00 80 1016.1
20260902111937 62 107 1.0 3.0 0.00 0.00 0.00 80 1016.2
20260902111421 62 134 0.0 2.0 0.00 0.00 0.00 80 1016.3
20260902110924 62 177 1.0 2.0 0.00 0.00 0.00 80 1016.2
20260902110429 62 88 0.0 3.0 0.00 0.00 0.00 80 1016.2
20260902105932 62 222 1.0 3.0 0.00 0.00 0.00 80 1016.3
20260902105418 62 134 1.0 2.0 0.00 0.00 0.00 80 1016.3
20260902104924 62 151 1.0 2.0 0.00 0.00 0.00 80 1016.3
20260902104458 62 116 1.0 2.0 0.00 0.00 0.00 80 1016.4
20260902103925 62 75 1.0 2.0 0.00 0.00 0.00 80 1016.4
20260902103426 62 88 1.0 2.0 0.00 0.00 0.00 80 1016.4
20260902102932 62 112 1.0 3.0 0.00 0.00 0.00 80 1016.4
20260902102447 62 156 1.0 3.0 0.00 0.00 0.00 80 1016.4
20260902101928 62 138 2.0 3.0 0.00 0.00 0.00 80 1016.3
20260902101435 62 127 2.0 3.0 0.00 0.00 0.00 80 1016.3
20260902100917 62 123 2.0 3.0 0.00 0.00 0.00 80 1016.3
20260902100423 62 112 2.0 3.0 0.00 0.00 0.00 80 1016.3
20260902095923 62 99 1.0 5.0 0.00 0.00 0.00 80 1016.3
20260902095429 62 104 3.0 5.0 0.00 0.00 0.00 80 1016.3
20260902094947 62 147 1.0 4.0 0.00 0.00 0.00 80 1016.3
20260902094434 62 222 1.0 5.0 0.00 0.00 0.00 80 1016.3
20260902093918 62 212 2.0 8.0 0.00 0.00 0.00 80 1016.3
20260902093423 62 235 3.0 9.0 0.00 0.00 0.00 80 1016.3
20260902092922 62 196 3.0 9.0 0.00 0.00 0.00 80 1016.3
20260902092426 62 215 4.0 8.0 0.00 0.00 0.00 80 1016.2
20260902091929 62 211 3.0 6.0 0.00 0.00 0.00 81 1016.2
20260902091432 62 230 4.0 6.0 0.00 0.00 0.00 81 1016.3
20260902090936 62 239 2.0 6.0 0.00 0.00 0.00 81 1016.3
20260902090419 62 240 2.0 6.0 0.00 0.00 0.00 81 1016.4
20260902085923 62 236 3.0 6.0 0.00 0.00 0.00 81 1016.5
20260902085446 62 259 2.0 5.0 0.00 0.00 0.00 81 1016.5
20260902084930 62 244 2.0 6.0 0.00 0.00 0.00 81 1016.5
20260902084433 62 212 2.0 6.0 0.00 0.00 0.00 81 1016.5
20260902083935 62 268 2.0 7.0 0.00 0.00 0.00 81 1016.5
20260902083420 61 196 3.0 6.0 0.00 0.00 0.00 81 1016.6
20260902082920 61 185 2.0 4.0 0.00 0.00 0.00 81 1016.7
20260902082424 61 239 1.0 3.0 0.00 0.00 0.00 81 1016.7
20260902081924 61 222 1.0 3.0 0.00 0.00 0.00 81 1016.7
20260902081431 61 251 1.0 4.0 0.00 0.00 0.00 81 1016.7
20260902080934 61 212 2.0 4.0 0.00 0.00 0.00 81 1016.6
20260902080439 62 232 2.0 4.0 0.00 0.00 0.00 81 1016.7
20260902075941 62 177 1.0 4.0 0.00 0.00 0.00 81 1016.7
20260902075455 62 189 1.0 5.0 0.00 0.00 0.00 81 1016.7
20260902074935 62 209 2.0 7.0 0.00 0.00 0.00 81 1016.6
20260902074421 62 212 4.0 7.0 0.00 0.00 0.00 81 1016.6
20260902073924 62 256 1.0 6.0 0.00 0.00 0.00 81 1016.6
20260902073427 62 184 2.0 7.0 0.00 0.00 0.00 81 1016.6
20260902073017 62 222 3.0 7.0 0.00 0.00 0.00 81 1016.6
20260902072434 62 222 3.0 8.0 0.00 0.00 0.00 82 1016.6
20260902071936 62 231 5.0 8.0 0.00 0.00 0.00 82 1016.5
20260902071420 62 251 4.0 8.0 0.00 0.00 0.00 82 1016.6
20260902070946 62 251 3.0 10.0 0.00 0.00 0.00 82 1016.7
20260902070456 62 240 4.0 7.0 0.00 0.00 0.00 83 1016.6
20260902065932 62 251 4.0 9.0 0.00 0.00 0.00 83 1016.5
20260902065435 61 206 4.0 9.0 0.00 0.00 0.00 83 1016.5
20260902064934 61 232 2.0 5.0 0.00 0.00 0.00 83 1016.5
20260902064437 61 226 2.0 5.0 0.00 0.00 0.00 83 1016.6
20260902063921 61 256 2.0 4.0 0.00 0.00 0.00 83 1016.5
20260902063423 61 212 2.0 4.0 0.00 0.00 0.00 83 1016.5
20260902062947 61 230 1.0 3.0 0.00 0.00 0.00 83 1016.7
20260902062433 61 177 1.0 3.0 0.00 0.00 0.00 83 1016.6
20260902061935 61 88 1.0 2.0 0.00 0.00 0.00 83 1016.6
20260902061437 61 205 1.0 3.0 0.00 0.00 0.00 83 1016.5
20260902060951 61 222 1.0 3.0 0.00 0.00 0.00 83 1016.6
20260902060459 61 215 1.0 2.0 0.00 0.00 0.00 83 1016.6
20260902055924 61 268 1.0 2.0 0.00 0.00 0.00 83 1016.7
20260902055425 61 134 1.0 2.0 0.00 0.00 0.00 83 1016.6
20260902054924 61 123 1.0 2.0 0.00 0.00 0.00 83 1016.6
20260902054429 61 134 1.0 2.0 0.00 0.00 0.00 83 1016.7
20260902053935 62 151 1.0 2.0 0.00 0.00 0.00 82 1016.6